TITAN 4B DEB, 27469

Orbit data source: Space-Track

TITAN 4B DEB, 27469 is space debris in LEO originally from a launch on Thu, 17 Aug 2000 UTC launched from the Air Force Western Test Range (AFWTR). Debris objects in space refer to the collection of defunct objects orbiting the Earth. Examples of debris include non-operational satellites, rocket bodies, and fragments generated from explosions, collisions, or faulty payload assembly.

Loading next visibility...
Identifier
27469, 2000-047C
Orbit
LEO
Country
Flag of USUS
Related business
Manufacturer
LMA
Mission
Spacecraft
Bus & Motor
Unknown
Mass
Unknown
Launch date (UTC)
2000-08-17 (25 years ago)
Launch vehicle
Unknown
Launch site
Air Force Western Test Range (AFWTR)
Object type
Payload
Rocket body
Debris
Shape & HBR
Unknown shape, 0.1 m
Radar Cross Section
Small (<0.1 m²)

Expand to show TLE details & history
Last TLE update: 7 hours ago

TLE from 7 hours ago
0 TITAN 4B DEB
1 27469U 00047C   25290.94821759  .00001004  00000-0  10764-3 0  9998
2 27469  67.9949 266.6792 0067248 273.7285  85.6168 14.91480502263608
Epoch: 2025-10-17T22:45Z
TLE epoch observation values (Epoch: 2025-10-17T22:45:25.999Z)
Latitude
0.00004°
Longitude
-101.36538°
Altitude
592.317 km
Speed
7.566 km/s
True Right ascension
17h 46m 43s
True Declination
0° 00' 00"
Sunlit
Object was in daylight at epoch
Visualization orbit readout
Latitude
Unknown
Longitude
Unknown
Altitude
Unknown
Speed
Unknown
Apparent Right ascension
Unknown
Apparent Declination
Unknown
Sunlit
N/A
Visualization observer readout
Local Sidereal Time
00:13:33
Azimuth
Unknown
Elevation
Unknown
Doppler factor
Unknown
Orbital elements
Apogee altitude
638.364 km
Perigee altitude
544.625 km
Semi-major axis
6,969.632 km
Eccentricity
0.00672
Inclination
67.9949°
RAAN
266.6792°
Arg. of periapsis
273.7285°
True anomaly
86.38562°
Mean anomaly
85.6168°
Eccentric anomaly
86.00116°
Mean motion
3.73017 °/min
Orbital period
96.51 mins
BSTAR
0.00010764
Loading maneuver chart data...
Computing Atmospheric mass density...
Loading historical data...
Loading historical data...
Loading historical data...
Loading historical data...
Loading historical data...
Loading historical data...
Loading historical data...
Other satellites on launch #47 in the year 2000 (2000-08-17 UTC)

Documentation

Showing up to 5 results
|